Weather History for KHFJ - December, 2013

Change the Weather History Date:

Tuesday, December 17, 2013

  Actual Average (KJLN) Record (KJLN)
Temperature  
Mean Temperature 40 °F 37 °F  
Max Temperature 51 °F 46 °F 68 °F (1962)
Min Temperature 30 °F 27 °F 1 °F (1989)
Degree Days  
Heating Degree Days 24 28  
Month to date heating degree days 447  
Since 1 July heating degree days 1204  
Cooling Degree Days 0 0  
Month to date cooling degree days 0  
Year to date cooling degree days 1698  
Moisture  
Dew Point 31 °F    
Average Humidity 71    
Maximum Humidity 100    
Minimum Humidity 47    
Precipitation  
Precipitation 0.00 in 0.09 in 1.95 in (1959)
Month to date precipitation 1.67  
Year to date precipitation 45.40  
Sea Level Pressure  
Sea Level Pressure 30.23 in    
Wind  
Wind Speed 6 mph (WNW)    
Max Wind Speed 20 mph    
Max Gust Speed 25 mph    
Visibility 10 miles    
Events      
T = Trace of Precipitation, MM = Missing Value Source: NWS Daily Summary

Daily Weather History Graph

Daily Weather History Graph

Search for Another Location

Airport or City:

Trip Planner

Search our weather history database for the weather conditions in past years. The results will help you decide how hot, cold, wet, or windy it might be!

Date:

Astronomy

Dec. 17, 2013 Rise Set
Actual Time 7:23 AM CST 5:01 PM CST
Civil Twilight 6:54 AM CST 5:30 PM CST
Nautical Twilight 6:21 AM CST 6:03 PM CST
Astronomical Twilight 5:50 AM CST 6:34 PM CST
Moon 5:40 PM CST (12/17) 7:21 AM CST (12/17)
Length of Visible Light 10h 36m
Length of Day
9h 38m
Full, 100% of the Moon is Illuminated
Dec 17
Full
Dec 25
Last Quarter
Jan 1
New
Jan 7
First Quarter
Jan 15
Full

Hourly Weather History & Observations

Time (CST) Temp. Windchill Dew Point Humidity Pressure Visibility Wind Dir Wind Speed Gust Speed Precip Events Conditions
12:15 AM 37.4 °F 33.8 °F 32.0 °F 81% 30.12 in 10.0 mi NNW 4.6 mph - N/A   Clear
12:35 AM 37.4 °F 34.9 °F 32.0 °F 81% 30.12 in 10.0 mi West 3.5 mph - N/A   Clear
12:55 AM 37.4 °F 33.8 °F 32.0 °F 81% 30.12 in 10.0 mi SW 4.6 mph - N/A   Clear
1:15 AM 37.4 °F 33.8 °F 32.0 °F 81% 30.12 in 10.0 mi SSW 4.6 mph - N/A   Clear
1:35 AM 37.4 °F 33.8 °F 32.0 °F 81% 30.12 in 10.0 mi SSW 4.6 mph - N/A   Clear
1:55 AM 37.4 °F 32.8 °F 32.0 °F 81% 30.12 in 10.0 mi South 5.8 mph - N/A   Clear
2:15 AM 37.4 °F 32.8 °F 32.0 °F 81% 30.12 in 10.0 mi South 5.8 mph - N/A   Clear
2:35 AM 37.4 °F 33.8 °F 32.0 °F 81% 30.13 in 10.0 mi SSW 4.6 mph - N/A   Clear
2:55 AM 37.4 °F 33.8 °F 32.0 °F 81% 30.13 in 10.0 mi SSW 4.6 mph - N/A   Clear
3:15 AM 37.4 °F 33.8 °F 32.0 °F 81% 30.13 in 10.0 mi SSW 4.6 mph - N/A   Clear
3:35 AM 37.4 °F 34.9 °F 32.0 °F 81% 30.13 in 10.0 mi SSW 3.5 mph - N/A   Clear
3:55 AM 35.6 °F 30.7 °F 32.0 °F 87% 30.13 in 10.0 mi South 5.8 mph - N/A   Clear
4:15 AM 35.6 °F 30.7 °F 32.0 °F 87% 30.13 in 10.0 mi SSW 5.8 mph - N/A   Clear
4:35 AM 35.6 °F 31.7 °F 32.0 °F 87% 30.12 in 10.0 mi SSW 4.6 mph - N/A   Clear
4:55 AM 35.6 °F 32.8 °F 32.0 °F 87% 30.14 in 10.0 mi SSW 3.5 mph - N/A   Clear
5:15 AM 32.0 °F 26.4 °F 30.2 °F 93% 30.15 in 10.0 mi North 5.8 mph - N/A   Clear
5:35 AM 32.0 °F 27.5 °F 30.2 °F 93% 30.16 in 10.0 mi North 4.6 mph - N/A   Clear
5:55 AM 33.8 °F 30.8 °F 32.0 °F 93% 30.16 in 10.0 mi NNE 3.5 mph - N/A   Clear
6:15 AM 32.0 °F 25.6 °F 30.2 °F 93% 30.17 in 10.0 mi NE 6.9 mph - N/A   Clear
6:35 AM 32.0 °F 27.5 °F 30.2 °F 93% 30.17 in 10.0 mi East 4.6 mph - N/A   Clear
6:55 AM 30.2 °F 25.4 °F 30.2 °F 100% 30.18 in 10.0 mi ESE 4.6 mph - N/A   Clear
7:15 AM 30.2 °F - 30.2 °F 100% 30.19 in 10.0 mi Calm Calm - N/A   Clear
7:35 AM 32.0 °F - 30.2 °F 93% 30.19 in 10.0 mi Calm Calm - N/A   Clear
7:55 AM 32.0 °F - 30.2 °F 93% 30.20 in 10.0 mi Calm Calm - N/A   Clear
8:15 AM 32.0 °F - 32.0 °F 100% 30.20 in 10.0 mi Calm Calm - N/A   Clear
8:35 AM 33.8 °F - 32.0 °F 93% 30.20 in 10.0 mi Calm Calm - N/A   Clear
8:55 AM 35.6 °F 32.8 °F 32.0 °F 87% 30.22 in 10.0 mi SSW 3.5 mph - N/A   Clear
9:15 AM 35.6 °F 32.8 °F 32.0 °F 87% 30.23 in 10.0 mi SSW 3.5 mph - N/A   Clear
9:35 AM 37.4 °F 34.9 °F 33.8 °F 87% 30.23 in 10.0 mi SSW 3.5 mph - N/A   Clear
9:55 AM 41.0 °F 38.0 °F 33.8 °F 76% 30.25 in 10.0 mi SW 4.6 mph - N/A   Clear
10:15 AM 42.8 °F 41.1 °F 35.6 °F 76% 30.25 in 10.0 mi SW 3.5 mph - N/A   Clear
10:35 AM 46.4 °F 43.5 °F 33.8 °F 62% 30.26 in 10.0 mi WNW 5.8 mph - N/A   Clear
10:55 AM 48.2 °F - 33.8 °F 58% 30.27 in 10.0 mi WNW 8.1 mph - N/A   Clear
11:15 AM 50.0 °F - 33.8 °F 54% 30.27 in 10.0 mi NNW 15.0 mph 19.6 mph N/A   Clear
11:35 AM 50.0 °F - 32.0 °F 50% 30.27 in 10.0 mi NNW 16.1 mph 23.0 mph N/A   Clear
11:55 AM 50.0 °F - 32.0 °F 50% 30.27 in 10.0 mi NNW 12.7 mph 19.6 mph N/A   Clear
12:15 PM 50.0 °F - 32.0 °F 50% 30.27 in 10.0 mi NW 19.6 mph 25.3 mph N/A   Clear
12:35 PM 50.0 °F - 32.0 °F 50% 30.27 in 10.0 mi NNW 16.1 mph - N/A   Clear
12:55 PM 50.0 °F - 32.0 °F 50% 30.26 in 10.0 mi NNW 12.7 mph 18.4 mph N/A   Clear
1:15 PM 50.0 °F - 32.0 °F 50% 30.26 in 10.0 mi NNW 15.0 mph 20.7 mph N/A   Clear
1:35 PM 51.8 °F - 32.0 °F 47% 30.26 in 10.0 mi NNW 13.8 mph - N/A   Clear
1:55 PM 51.8 °F - 32.0 °F 47% 30.26 in 10.0 mi NW 15.0 mph - N/A   Clear
2:15 PM 50.0 °F - 32.0 °F 50% 30.26 in 10.0 mi NNW 15.0 mph - N/A   Clear
2:35 PM 50.0 °F - 32.0 °F 50% 30.27 in 10.0 mi NW 13.8 mph 19.6 mph N/A   Clear
2:55 PM 50.0 °F - 32.0 °F 50% 30.27 in 10.0 mi NW 15.0 mph - N/A   Clear
3:15 PM 50.0 °F - 32.0 °F 50% 30.27 in 10.0 mi NW 11.5 mph - N/A   Clear
3:35 PM 50.0 °F - 32.0 °F 50% 30.28 in 10.0 mi NNW 8.1 mph - N/A   Clear
3:55 PM 50.0 °F - 32.0 °F 50% 30.28 in 10.0 mi NW 8.1 mph - N/A   Clear
4:15 PM 50.0 °F - 32.0 °F 50% 30.28 in 10.0 mi NW 4.6 mph - N/A   Clear
4:35 PM 46.4 °F 44.3 °F 32.0 °F 57% 30.28 in 10.0 mi WNW 4.6 mph - N/A   Clear
4:55 PM 46.4 °F 44.3 °F 32.0 °F 57% 30.27 in 10.0 mi WNW 4.6 mph - N/A   Clear
5:15 PM 44.6 °F 43.1 °F 30.2 °F 57% 30.28 in 10.0 mi WNW 3.5 mph - N/A   Clear
5:35 PM 44.6 °F 42.2 °F 30.2 °F 57% 30.28 in 10.0 mi WNW 4.6 mph - N/A   Clear
5:55 PM 44.6 °F 43.1 °F 30.2 °F 57% 30.28 in 10.0 mi WNW 3.5 mph - N/A   Clear
6:15 PM 44.6 °F 42.2 °F 30.2 °F 57% 30.28 in 10.0 mi WNW 4.6 mph - N/A   Clear
6:35 PM 44.6 °F 42.2 °F 30.2 °F 57% 30.29 in 10.0 mi NW 4.6 mph - N/A   Clear
6:55 PM 42.8 °F 41.1 °F 30.2 °F 61% 30.29 in 10.0 mi NW 3.5 mph - N/A   Clear
7:15 PM 42.8 °F 41.1 °F 30.2 °F 61% 30.29 in 10.0 mi NW 3.5 mph - N/A   Clear
7:35 PM 42.8 °F 40.1 °F 28.4 °F 57% 30.29 in 10.0 mi NW 4.6 mph - N/A   Clear
7:55 PM 41.0 °F - 28.4 °F 61% 30.29 in 10.0 mi Calm Calm - N/A   Clear
8:15 PM 41.0 °F - 26.6 °F 57% 30.29 in 10.0 mi Calm Calm - N/A   Clear
8:35 PM 35.6 °F - 26.6 °F 70% 30.28 in 10.0 mi Calm Calm - N/A   Clear
8:55 PM 37.4 °F - 26.6 °F 65% 30.28 in 10.0 mi Calm Calm - N/A   Clear
9:15 PM 37.4 °F - 26.6 °F 65% 30.28 in 10.0 mi Calm Calm - N/A   Clear
9:35 PM 37.4 °F 34.9 °F 26.6 °F 65% 30.28 in 10.0 mi East 3.5 mph - N/A   Clear
9:55 PM 33.8 °F - 28.4 °F 81% 30.28 in 10.0 mi Calm Calm - N/A   Clear
10:15 PM 33.8 °F 30.8 °F 26.6 °F 75% 30.29 in 10.0 mi ESE 3.5 mph - N/A   Clear
10:35 PM 35.6 °F 31.7 °F 28.4 °F 75% 30.29 in 10.0 mi ESE 4.6 mph - N/A   Clear
10:55 PM 35.6 °F 29.9 °F 26.6 °F 70% 30.29 in 10.0 mi ESE 6.9 mph - N/A   Clear
11:15 PM 35.6 °F 29.9 °F 26.6 °F 70% 30.28 in 10.0 mi East 6.9 mph - N/A   Clear
11:35 PM 35.6 °F 28.0 °F 26.6 °F 70% 30.27 in 10.0 mi ESE 10.4 mph - N/A   Clear
11:55 PM 33.8 °F 27.0 °F 28.4 °F 81% 30.26 in 10.0 mi ESE 8.1 mph - N/A   Clear